www.pogodaiklimat.ru

АРХИВ ПОГОДЫ в Новом Орлеане

Время (UTC), дата Ветер
(напр.,м/с)
 
Видим.   Явления Облачность Т
(С)
Тd
(С)
f
(%)
Тe
(С)
Тes
(С)
Комфортность

P
(гПа)

Po
(гПа)
Тmin
(С)
Tmax
(С)
R
(мм)
SD
(см)
01:53 17.08 Ю  16 км    ясно  +28.3  +23.9  77  +39  +39  очень
душно 
1018.3  1018.6         
02:53 17.08 Ю  16 км    ясно  +27.8  +23.3  77  +38  +38  очень
душно 
1018.6  1018.9         
03:53 17.08 Ю  16 км    ясно  +27.8  +24.4  82  +39  +39  очень
душно 
1018.5  1018.9         
04:53 17.08 Ю  16 км    ясно  +27.8  +24.4  82  +39  +39  очень
душно 
1018.6  1018.9         
05:53 17.08 Ю  16 км    ясно  +27.2  +23.9  82  +37  +37  очень
душно 
1018.4  1018.6         
06:53 17.08 ЮВ  16 км    ясно  +27.2  +23.9  82  +37  +37  очень
душно 
1018.4  1018.6         
07:53 17.08 Ю  16 км    ясно  +27.2  +23.9  82  +37  +37  очень
душно 
1018.4  1018.6         
08:53 17.08 Ю  16 км    ясно  +27.2  +24.4  85  +38  +38  очень
душно 
1018.6  1018.9         
09:38 17.08 ЮВ  16 км  гроза  ясно  +27.0  +24.0  84  +37  +37  очень
душно 
  1019.3         
09:53 17.08 ЮВ  16 км  гроза  ясно  +26.7  +23.9  85  +37  +37  очень
душно 
  1019.3         
10:20 17.08 Ю  16 км    ясно  +26.7  +23.9  85  +37  +37  очень
душно 
  1019.3         
10:49 17.08 ЮЗ  16 км  гроза  ясно  +27.0  +24.0  84  +37  +37  очень
душно 
  1019.6         
10:53 17.08 ЮЗ  16 км  гроза  8/8 750 м  +27.2  +24.4  85  +38  +38  очень
душно 
  1019.6  +26.7  +27.8     
11:07 17.08 З  16 км  гроза  5/5 840 м  +27.8  +24.4  82  +39  +39  очень
душно 
  1020.0         
11:53 17.08 СЗ  16 км    2/2 1950 м  +27.8  +23.9  79  +38  +38  очень
душно 
1019.7  1020.0         
12:53 17.08 штиль  16 км    2/2 1950 м  +28.9  +23.3  72  +39  +42  очень
душно 
1019.4  1019.6         
13:53 17.08 В  16 км    ясно  +29.4  +24.4  75  +42  +47  опасность
перегрева 
1019.2  1019.6         
14:19 17.08 нст  400 м  сильный дождь, туман  8/8 480 м
[средняя] 
+27.2  +25.0  88  +39  +42  очень
душно 
  1020.3         
14:26 17.08     400 м  гроза с сильным дождем, туман  10/8 420 м
[средняя] 
+26.1  +24.4  90  +36  +37  очень
душно 
  1020.3         
14:36 17.08 ЮЗ  400 м  гроза с сильным дождем  10/10 450 м  +25.6  +22.8  85  +34  +34  очень
душно 
  1020.3         
14:44 17.08 Ю  800 м  гроза с сильным дождем  10/10 510 м  +26.1  +22.8  82  +35  +35  очень
душно 
  1020.0         
14:51 17.08 Ю  2 км  гроза с сильным дождем, дымка  10/10 810 м  +26.0  +23.0  84  +35  +35  очень
душно 
  1020.0         
14:53 17.08 Ю  13 км  гроза с дождем, дымка  10/10 930 м  +25.0  +22.8  88  +33  +33  очень
душно 
1019.5  1020.0         
15:00 17.08 Ю  13 км  гроза со слабым дождем  10/8 1050 м
[средняя] 
+25.0  +22.8  88  +33  +33  очень
душно 
  1020.3         
15:53 17.08 ЮВ  13 км  гроза, слабый дождь  5/2 1260 м
[средняя] 
+24.4  +22.8  91  +32  +41  очень
душно 
1019.4  1020.0         
16:14 17.08 ЮВ  16 км    ясно  +26.0  +23.0  84  +35  +52  опасность
солнечного
удара 
  1020.0         
16:53 17.08 Ю  13 км  слабый дождь  5/0 2700 м
[средняя] 
+26.1  +23.3  85  +35  +45  очень
душно 
1019.5  1020.0  +24.4  +30.6  35.8   
17:53 17.08 Ю  16 км    10/10 900 м  +27.2  +23.9  82  +37  +37  очень
душно 
1019.0  1019.3         
18:53 17.08 ЮВ  16 км  гроза  5/5 1290 м  +28.3  +25.0  82  +41  +51  опасность
перегрева 
  1018.6         
19:00 17.08 Ю  16 км  гроза  8/8 960 м  +28.3  +25.0  82  +41  +44  опасность
перегрева 
  1018.9         
19:15 17.08 ЮЗ  3 км  гроза с дождем  10/10 780 м  +26.1  +22.8  82  +35  +35  очень
душно 
  1018.9         
19:20 17.08 ЮЗ  1 км  гроза с сильным дождем  10/10 660 м  +25.6  +22.2  82  +33  +33  очень
душно 
  1018.9         
19:36 17.08 Ю  2 км  гроза, сильный дождь  10/8 1260 м
[средняя] 
+26.1  +22.8  82  +35  +36  очень
душно 
  1018.6         
19:44 17.08 Ю  5 км  гроза, слабый дождь  8/5 1140 м
[средняя] 
+26.7  +23.9  85  +37  +41  очень
душно 
  1018.9         
19:53 17.08 Ю  8 км  гроза, слабый дождь  8/2 1500 м
[средняя] 
+27.2  +23.9  82  +37  +42  очень
душно 
1018.6  1018.9      9.1   
20:11 17.08 Ю  14 км  гроза со слабым дождем  8/5 960 м
[средняя] 
+26.7  +24.4  87  +37  +39  очень
душно 
  1018.9         
20:26 17.08 Ю  16 км  гроза  8/5 1020 м
[средняя] 
+27.2  +24.4  85  +38  +39  очень
душно 
  1018.9         
20:40 17.08 ЮВ  16 км  гроза  5/5 990 м
[средняя] 
+26.7  +24.4  87  +37  +41  очень
душно 
  1018.9         
20:53 17.08 Ю  16 км  гроза  2/2 1050 м  +26.1  +23.9  88  +36  +43  очень
душно 
1018.6           
21:00 17.08 Ю  16 км    2/2 930 м  +26.0  +24.0  89  +36  +39  очень
душно 
  1018.9         
21:53 17.08 ЮВ  16 км    ясно  +26.7  +23.9  85  +37  +43  очень
душно 
1018.0  1018.3         
22:53 17.08 Ю  16 км    ясно  +26.1  +23.9  88  +36  +38  очень
душно 
1017.6  1017.9      9.4   
23:53 17.08 Ю  16 км    ясно  +26.1  +23.9  88  +36  +36  очень
душно 
1018.2  1018.6         
00:53 18.08 ЮВ  16 км    ясно  +26.7  +24.4  87  +37  +37  очень
душно 
1018.2  1018.6         
01:53 18.08 ЮВ  16 км    ясно  +26.1  +24.4  90  +36  +36  очень
душно 
1018.8  1019.3         
02:53 18.08 Ю  16 км    ясно  +26.1  +24.4  90  +36  +36  очень
душно 
1019.0  1019.3         
03:53 18.08 Ю  16 км    ясно  +26.1  +24.4  90  +36  +36  очень
душно 
1018.7  1018.9         
04:53 18.08 Ю  16 км    ясно  +26.1  +24.4  90  +36  +36  очень
душно 
1018.1  1018.3         

 

Местоположение метеостанции New Orleans Lakefront Airport: широта 30.0494 долгота -90.0289 высота над уровнем моря 2 м.

В архиве по умолчанию представлена погода в Новом Орлеане за последние 1-2 суток. Обновление информации о фактической погоде в базе происходит ежечасно! Архивные данные за месяц целиком и за предыдущие месяцы Вы можете получить, выбрав интересующий диапазон дат из раскрывающегося списка и нажав кнопку "Ввод!".

Внимание! Архив погоды МЕТАР в базе сайта в настоящее время начинается c 1 января 2013 г. Нет смысла пытаться выбрать более раннюю дату.

Внимание! Время в таблицах - всемирное. Для получения местного времени необходимо прибавить поправку, которая в Новом Орлеане равна -6 ч.

Ветер - указаны скорость ветра в м/с и направление, откуда дует ветер: С - северный, СВ - северо-восточный, В - восточный, ЮВ - юго-восточный, Ю - южный, ЮЗ - юго-западный, З - западный, СЗ - северо-западный.
Видимость - горизонтальная дальность видимости в метрах или километрах. При видимости от 1 до 10 км при отсутствии осадков обычно наблюдается дымка, при ухудшении видимости до 1 км и менее - туман. В сухую погоду видимость может ухудшаться дымом, пылью или мглою.
Атмосферные явления - указаны явления, наблюдавшиеся в указанный момент времени.
Облачность - указаны через наклонную черту верхняя и нижняя облачность в баллах и высота нижней границы облаков в метрах. Внимание: облачность, как и прочие метеорологические величины в США измеряются автоматическими метеостанциями. Указанные значения в баллах носят условный характер и показывают процент времени, в течение которого, в среднем, лазерный луч высотомера отражался от облаков обратно.
T - Температура воздуха - температура, измеренная на высоте 2 м над землей.
Td - Температура точки росы - температура, при понижении до которой содержащийся в воздухе водяной пар достигнет насыщения.
f - Относительная влажность воздуха - влажноcть воздуха, измеренная на высоте 2 м над землей.
Te - Эффективная температура - температура, которую ощущает одетый по сезону человек в тени. Характеристика душности погоды. При расчете учитывается влияние влажности воздуха и скорости ветра на теплоощущения человека.
Tes - Эффективная температура на солнце - температура, которую ощущает человек, с поправкой на солнечный нагрев. Характеристика знойности погоды. Зависит от высоты солнца над горизонтом, облачности и скорости ветра. Ночью, в пасмурную погоду, а также при ветре 12 м/с и более поправка равна нулю.
P - Атмосферное давление - приведенное к уровню моря атмосферное давление.
Po - Атмосферное давление - измеренное на уровне метеостанции атмосферное давление.
Tmin - Минимальная температура - минимум температуры воздуха на высоте 2 м над землей.
Tmax - Максимальная температура - максимум температуры воздуха на высоте 2 м над землей.
R - Количество осадков - Количество выпавших осадков за 3 или 6 часов, мм.
SD - Снежный покров - Высота снежного покрова, см.